Seretse Khama, Botswana

6:40 PM CAT on February 19, 2018 (GMT +0200)
Seretse Khama

Weather History for FBSK - November, 2012

Change the Weather History Date:

Friday, November 23, 2012

  Actual Average Record
Temperature  
Mean Temperature 77 °F -  
Max Temperature 88 °F 86 °F 93 °F (2005)
Min Temperature 64 °F 64 °F 32 °F (2003)
Cooling Degree Days 12    
Growing Degree Days 27 (Base 50)    
Moisture  
Dew Point 60 °F    
Average Humidity 62    
Maximum Humidity 94    
Minimum Humidity 28    
Precipitation  
Precipitation 0.00 in - - ()
Sea Level Pressure  
Sea Level Pressure 30.02 in    
Wind  
Wind Speed 8 mph ()    
Max Wind Speed 13 mph    
Max Gust Speed -    
Visibility 6.1 miles    
Events Rain , Thunderstorm    
Averages and records for this station are not official NWS values.
T = Trace of Precipitation, MM = Missing Value Source: Averaged Metar Reports

Daily Weather History Graph

Daily Weather History Graph

Search for Another Location

Airport or City:

Trip Planner

Search our weather history database for the weather conditions in past years. The results will help you decide how hot, cold, wet, or windy it might be!

Date:

Astronomy

Nov. 23, 2012 Rise Set
Actual Time 5:19 AM CAT 6:46 PM CAT
Civil Twilight 4:54 AM CAT 7:11 PM CAT
Nautical Twilight 4:24 AM CAT 7:41 PM CAT
Astronomical Twilight 3:54 AM CAT 8:12 PM CAT
Moon 2:32 PM CAT (11/23) 1:50 AM CAT (11/23)
Length of Visible Light 14h 16m
Length of Day
13h 26m
Waxing Gibbous, 77% of the Moon is Illuminated
Nov 23
Waxing Gibbous
Nov 28
Full
Dec 6
Last Quarter
Dec 13
New
Dec 20
First Quarter

Hourly Weather History & Observations

Time (CAT) Temp. Heat Index Dew Point Humidity Pressure Visibility Wind Dir Wind Speed Gust Speed Precip Events Conditions
4:00 AM 66.2 °F - 60.8 °F 83% 30.01 in 6.2 mi NNE 9.2 mph - N/A   Partly Cloudy
5:00 AM 68.0 °F - 60.8 °F 78% 30.04 in 6.2 mi NE 9.2 mph - N/A   Scattered Clouds
6:00 AM 68.0 °F - 62.6 °F 83% 30.06 in - ENE 9.2 mph - N/A   Clear
7:00 AM 69.8 °F - 60.8 °F 73% 30.09 in 6.2 mi NE 9.2 mph - N/A   Mostly Cloudy
8:00 AM 71 °F - 61 °F 63%  in 6 mi NE 10.4 mph - -   Partly Cloudy
8:00 AM 71.6 °F - 60.8 °F 69% 30.12 in 6.2 mi NE 10.4 mph - N/A   Scattered Clouds
9:00 AM 75.2 °F - 60.8 °F 61% 30.09 in 6.2 mi NE 11.5 mph - N/A   Scattered Clouds
10:00 AM 77.0 °F - 62.6 °F 61% 30.09 in 6.2 mi NE 9.2 mph - N/A   Scattered Clouds
11:00 AM 78.8 °F - 60.8 °F 54% 30.06 in 6.2 mi NNE 9.2 mph - N/A   Mostly Cloudy
12:00 PM 82.4 °F 82.9 °F 60.8 °F 48% 30.06 in 6.2 mi North 11.5 mph - N/A   Mostly Cloudy
1:00 PM 84.2 °F 83.8 °F 59.0 °F 42% 30.01 in 6.2 mi North 8.1 mph - N/A   Mostly Cloudy
2:00 PM 86 °F - 57 °F 28%  in 6 mi NNW 8.1 mph - -   Partly Cloudy
2:00 PM 86.0 °F 84.9 °F 57.2 °F 37% 29.98 in 6.2 mi NNW 8.1 mph - N/A   Partly Cloudy
3:00 PM 87.8 °F 86.5 °F 57.2 °F 35% 29.95 in 6.2 mi Variable 5.8 mph - N/A   Partly Cloudy
4:00 PM 87.8 °F 86.1 °F 55.4 °F 33% 29.89 in 6.2 mi North 9.2 mph - N/A   Partly Cloudy
5:00 PM 84.2 °F 83.0 °F 55.4 °F 37% 29.89 in 6.2 mi NNE 5.8 mph - N/A Thunderstorm Thunderstorm
6:00 PM 80.6 °F 80.5 °F 55.4 °F 42% 29.92 in 6.2 mi NNE 9.2 mph - N/A Thunderstorm Thunderstorm
7:00 PM 75.2 °F - 62.6 °F 65% 29.95 in 6.2 mi WSW 8.1 mph - N/A Rain , Thunderstorm Light Thunderstorms and Rain
8:00 PM 69 °F - 64 °F 80%  in 6 mi NW 11.5 mph - - Rain , Thunderstorm Thunderstorms and Rain
8:00 PM 68.0 °F - 64.4 °F 88% 30.01 in 6.2 mi NW 11.5 mph - N/A Rain , Thunderstorm Thunderstorms and Rain
9:00 PM 68.0 °F - 62.6 °F 83% 30.01 in 6.2 mi WNW 12.7 mph - N/A Rain , Thunderstorm Thunderstorms and Rain
10:00 PM 66.2 °F - 62.6 °F 88% 30.04 in 6.2 mi WNW 12.7 mph - N/A Rain , Thunderstorm Thunderstorms and Rain
11:00 PM 64.4 °F - 62.6 °F 94% 30.06 in 5.6 mi NW 10.4 mph - N/A Rain Light Rain